Time,TemperatureF,DewpointF,PressureIn,WindDirection,WindDirectionDegrees,WindSpeedMPH,WindSpeedGustMPH,Humidity,HourlyPrecipIn,Conditions,Clouds,dailyrainin,SolarRadiationWatts/m^2,SoftwareType,DateUTC
2013-01-29 00:05:00,31.0,29.5,30.03,West,279,0.0,0.0,94,0.00,,,0.00,32767.00,ALWS 1.0-beta,2013-01-29 05:05:00,
2013-01-29 00:10:00,31.0,29.5,30.03,West,279,0.0,0.0,94,0.00,,,0.00,32767.00,ALWS 1.0-beta,2013-01-29 05:10:00,
2013-01-29 00:15:00,31.1,29.6,30.03,West,279,0.0,0.0,94,0.00,,,0.00,32767.00,ALWS 1.0-beta,2013-01-29 05:15:00,
2013-01-29 00:20:00,31.1,29.6,30.03,West,279,0.0,0.0,94,0.00,,,0.00,32767.00,ALWS 1.0-beta,2013-01-29 05:20:00,
2013-01-29 00:25:00,31.1,29.6,30.03,West,279,0.0,0.0,94,0.00,,,0.00,32767.00,ALWS 1.0-beta,2013-01-29 05:25:00,
2013-01-29 00:30:00,31.1,29.6,30.03,West,279,0.0,0.0,94,0.00,,,0.00,32767.00,ALWS 1.0-beta,2013-01-29 05:30:00,
2013-01-29 00:35:00,31.1,29.6,30.03,West,279,0.0,0.0,94,0.00,,,0.00,32767.00,ALWS 1.0-beta,2013-01-29 05:35:00,
2013-01-29 00:40:00,31.1,29.6,30.03,West,279,0.0,0.0,94,0.00,,,0.00,32767.00,ALWS 1.0-beta,2013-01-29 05:40:00,
2013-01-29 00:45:00,31.1,29.6,30.03,West,279,0.0,0.0,94,0.00,,,0.00,32767.00,ALWS 1.0-beta,2013-01-29 05:45:00,
2013-01-29 00:50:00,31.1,29.6,30.03,West,279,0.0,0.0,94,0.00,,,0.00,32767.00,ALWS 1.0-beta,2013-01-29 05:50:00,
2013-01-29 00:55:00,31.1,29.6,30.03,West,279,0.0,0.0,94,0.00,,,0.00,32767.00,ALWS 1.0-beta,2013-01-29 05:55:00,
2013-01-29 01:00:00,31.1,29.6,30.03,West,279,0.0,0.0,94,0.00,,,0.00,32767.00,ALWS 1.0-beta,2013-01-29 06:00:00,
2013-01-29 01:05:00,31.2,29.7,30.03,West,279,0.0,0.0,94,0.00,,,0.00,32767.00,ALWS 1.0-beta,2013-01-29 06:05:00,
2013-01-29 01:10:00,31.2,29.7,30.03,West,279,0.0,0.0,94,0.00,,,0.00,32767.00,ALWS 1.0-beta,2013-01-29 06:10:00,
2013-01-29 01:15:00,31.2,29.7,30.04,West,279,0.0,0.0,94,0.00,,,0.00,32767.00,ALWS 1.0-beta,2013-01-29 06:15:00,
2013-01-29 01:20:00,31.1,29.6,30.04,West,279,0.0,0.0,94,0.00,,,0.00,32767.00,ALWS 1.0-beta,2013-01-29 06:20:00,
2013-01-29 01:25:00,31.2,29.7,30.04,West,279,0.0,0.0,94,0.00,,,0.00,32767.00,ALWS 1.0-beta,2013-01-29 06:25:00,
2013-01-29 01:30:00,31.2,29.7,30.05,West,279,0.0,0.0,94,0.00,,,0.00,32767.00,ALWS 1.0-beta,2013-01-29 06:30:00,
2013-01-29 01:35:00,31.3,29.8,30.05,West,279,0.0,0.0,94,0.00,,,0.00,32767.00,ALWS 1.0-beta,2013-01-29 06:35:00,
2013-01-29 01:40:00,31.3,29.8,30.05,West,279,0.0,0.0,94,0.00,,,0.00,32767.00,ALWS 1.0-beta,2013-01-29 06:40:00,
2013-01-29 01:45:00,31.3,29.8,30.05,West,279,0.0,0.0,94,0.00,,,0.00,32767.00,ALWS 1.0-beta,2013-01-29 06:45:00,
2013-01-29 01:50:00,31.3,29.8,30.05,West,279,0.0,0.0,94,0.00,,,0.00,32767.00,ALWS 1.0-beta,2013-01-29 06:50:00,
2013-01-29 01:55:00,31.3,29.8,30.05,West,279,0.0,0.0,94,0.00,,,0.00,32767.00,ALWS 1.0-beta,2013-01-29 06:55:00,
2013-01-29 02:00:00,31.3,29.8,30.05,West,279,0.0,0.0,94,0.00,,,0.00,32767.00,ALWS 1.0-beta,2013-01-29 07:00:00,
2013-01-29 02:05:00,31.4,29.9,30.05,West,279,0.0,0.0,94,0.00,,,0.00,32767.00,ALWS 1.0-beta,2013-01-29 07:05:00,
2013-01-29 02:10:00,31.4,29.9,30.05,West,279,0.0,0.0,94,0.00,,,0.00,32767.00,ALWS 1.0-beta,2013-01-29 07:10:00,
2013-01-29 02:15:00,31.5,30.0,30.05,West,279,0.0,0.0,94,0.00,,,0.00,32767.00,ALWS 1.0-beta,2013-01-29 07:15:00,
2013-01-29 02:20:00,31.5,30.0,30.05,West,279,0.0,0.0,94,0.00,,,0.00,32767.00,ALWS 1.0-beta,2013-01-29 07:20:00,
2013-01-29 02:25:00,31.5,30.0,30.05,West,279,0.0,0.0,94,0.00,,,0.00,32767.00,ALWS 1.0-beta,2013-01-29 07:25:00,
2013-01-29 02:30:00,31.5,30.0,30.05,West,278,1.0,1.0,94,0.00,,,0.00,32767.00,ALWS 1.0-beta,2013-01-29 07:30:00,
2013-01-29 02:35:00,31.6,30.1,30.05,SW,214,1.0,2.0,94,0.00,,,0.00,32767.00,ALWS 1.0-beta,2013-01-29 07:35:00,
2013-01-29 02:40:00,31.7,30.2,30.05,SW,225,0.0,0.0,94,0.00,,,0.00,32767.00,ALWS 1.0-beta,2013-01-29 07:40:00,
2013-01-29 02:45:00,31.7,30.2,30.06,SW,225,0.0,0.0,94,0.00,,,0.00,32767.00,ALWS 1.0-beta,2013-01-29 07:45:00,
2013-01-29 02:50:00,31.7,30.2,30.06,SW,225,0.0,0.0,94,0.00,,,0.00,32767.00,ALWS 1.0-beta,2013-01-29 07:50:00,
2013-01-29 02:55:00,31.8,30.3,30.06,SW,225,0.0,0.0,94,0.00,,,0.00,32767.00,ALWS 1.0-beta,2013-01-29 07:55:00,
2013-01-29 03:00:00,31.9,30.4,30.06,SW,229,1.0,1.0,94,0.00,,,0.00,32767.00,ALWS 1.0-beta,2013-01-29 08:00:00,
2013-01-29 03:05:00,32.0,30.5,30.05,SW,229,0.0,0.0,94,0.00,,,0.00,32767.00,ALWS 1.0-beta,2013-01-29 08:05:00,
2013-01-29 03:10:00,32.0,30.5,30.05,SW,229,0.0,0.0,94,0.00,,,0.00,32767.00,ALWS 1.0-beta,2013-01-29 08:10:00,
2013-01-29 03:15:00,32.1,30.6,30.05,SW,229,0.0,0.0,94,0.00,,,0.00,32767.00,ALWS 1.0-beta,2013-01-29 08:15:00,
2013-01-29 03:20:00,32.1,30.6,30.05,SW,229,0.0,0.0,94,0.00,,,0.00,32767.00,ALWS 1.0-beta,2013-01-29 08:20:00,
2013-01-29 03:25:00,32.2,30.7,30.05,SW,229,0.0,0.0,94,0.00,,,0.00,32767.00,ALWS 1.0-beta,2013-01-29 08:25:00,
2013-01-29 03:30:00,32.2,30.7,30.06,SW,229,0.0,0.0,94,0.00,,,0.00,32767.00,ALWS 1.0-beta,2013-01-29 08:30:00,
2013-01-29 03:35:00,32.2,30.7,30.06,SW,229,0.0,0.0,94,0.00,,,0.00,32767.00,ALWS 1.0-beta,2013-01-29 08:35:00,
2013-01-29 03:40:00,32.2,30.7,30.05,SW,229,0.0,0.0,94,0.00,,,0.00,32767.00,ALWS 1.0-beta,2013-01-29 08:40:00,
2013-01-29 03:45:00,32.2,30.7,30.05,SW,229,0.0,0.0,94,0.00,,,0.00,32767.00,ALWS 1.0-beta,2013-01-29 08:45:00,
2013-01-29 03:50:00,32.3,30.8,30.06,SW,229,0.0,1.0,94,0.00,,,0.00,32767.00,ALWS 1.0-beta,2013-01-29 08:50:00,
2013-01-29 03:55:00,32.3,30.8,30.07,SW,229,0.0,1.0,94,0.00,,,0.00,32767.00,ALWS 1.0-beta,2013-01-29 08:55:00,
2013-01-29 04:00:00,32.3,30.8,30.06,SW,229,0.0,0.0,94,0.00,,,0.00,32767.00,ALWS 1.0-beta,2013-01-29 09:00:00,
2013-01-29 04:05:00,32.3,30.8,30.06,SW,229,0.0,0.0,94,0.00,,,0.00,32767.00,ALWS 1.0-beta,2013-01-29 09:05:00,
2013-01-29 04:10:00,32.3,30.8,30.06,SW,229,0.0,0.0,94,0.00,,,0.00,32767.00,ALWS 1.0-beta,2013-01-29 09:10:00,
2013-01-29 04:15:00,32.3,30.8,30.06,WSW,238,0.0,0.0,94,0.00,,,0.00,32767.00,ALWS 1.0-beta,2013-01-29 09:15:00,
2013-01-29 04:20:00,32.4,30.9,30.06,WSW,238,0.0,1.0,94,0.00,,,0.00,32767.00,ALWS 1.0-beta,2013-01-29 09:20:00,
2013-01-29 04:25:00,32.4,30.9,30.06,WSW,238,0.0,1.0,94,0.00,,,0.00,32767.00,ALWS 1.0-beta,2013-01-29 09:25:00,
2013-01-29 04:30:00,32.4,31.1,30.06,WSW,237,0.0,0.0,95,0.00,,,0.00,32767.00,ALWS 1.0-beta,2013-01-29 09:30:00,
2013-01-29 04:35:00,32.5,31.2,30.06,WSW,238,0.0,0.0,95,0.00,,,0.00,32767.00,ALWS 1.0-beta,2013-01-29 09:35:00,
2013-01-29 04:40:00,32.5,31.2,30.06,WSW,238,0.0,0.0,95,0.00,,,0.00,32767.00,ALWS 1.0-beta,2013-01-29 09:40:00,
2013-01-29 04:45:00,32.5,31.2,30.06,WSW,237,0.0,0.0,95,0.00,,,0.00,32767.00,ALWS 1.0-beta,2013-01-29 09:45:00,
2013-01-29 04:50:00,32.6,31.3,30.07,WSW,237,0.0,0.0,95,0.00,,,0.00,32767.00,ALWS 1.0-beta,2013-01-29 09:50:00,
2013-01-29 04:55:00,32.5,31.2,30.07,WSW,238,0.0,0.0,95,0.00,,,0.00,32767.00,ALWS 1.0-beta,2013-01-29 09:55:00,
2013-01-29 05:00:00,32.5,31.2,30.07,WSW,238,0.0,0.0,95,0.00,,,0.00,32767.00,ALWS 1.0-beta,2013-01-29 10:00:00,
2013-01-29 05:05:00,32.6,31.3,30.07,WSW,237,0.0,0.0,95,0.00,,,0.00,32767.00,ALWS 1.0-beta,2013-01-29 10:05:00,
2013-01-29 05:10:00,32.5,31.2,30.08,WSW,238,0.0,0.0,95,0.00,,,0.00,32767.00,ALWS 1.0-beta,2013-01-29 10:10:00,
2013-01-29 05:15:00,32.5,31.2,30.08,WSW,238,0.0,0.0,95,0.00,,,0.00,32767.00,ALWS 1.0-beta,2013-01-29 10:15:00,
2013-01-29 05:20:00,32.5,31.2,30.08,WSW,237,0.0,0.0,95,0.00,,,0.00,32767.00,ALWS 1.0-beta,2013-01-29 10:20:00,
2013-01-29 05:25:00,32.6,31.3,30.08,WSW,237,0.0,0.0,95,0.00,,,0.00,32767.00,ALWS 1.0-beta,2013-01-29 10:25:00,
2013-01-29 05:30:00,32.6,31.3,30.08,WSW,237,0.0,0.0,95,0.00,,,0.00,32767.00,ALWS 1.0-beta,2013-01-29 10:30:00,
2013-01-29 05:35:00,32.7,31.4,30.08,WSW,238,0.0,0.0,95,0.00,,,0.00,32767.00,ALWS 1.0-beta,2013-01-29 10:35:00,
2013-01-29 05:40:00,32.7,31.4,30.08,WSW,238,0.0,1.0,95,0.00,,,0.00,32767.00,ALWS 1.0-beta,2013-01-29 10:40:00,
2013-01-29 05:45:00,32.8,31.5,30.09,WSW,237,0.0,0.0,95,0.00,,,0.00,32767.00,ALWS 1.0-beta,2013-01-29 10:45:00,
2013-01-29 05:50:00,33.0,31.7,30.08,WSW,238,3.0,3.0,95,0.00,,,0.00,32767.00,ALWS 1.0-beta,2013-01-29 10:50:00,
2013-01-29 05:55:00,33.4,32.1,30.09,WSW,250,2.0,2.0,95,0.00,,,0.00,32767.00,ALWS 1.0-beta,2013-01-29 10:55:00,
2013-01-29 06:00:00,34.1,32.8,30.09,West,263,0.0,0.0,95,0.00,,,0.00,32767.00,ALWS 1.0-beta,2013-01-29 11:00:00,
2013-01-29 06:05:00,34.4,33.1,30.09,West,263,0.0,1.0,95,0.00,,,0.00,32767.00,ALWS 1.0-beta,2013-01-29 11:05:00,
2013-01-29 06:10:00,34.7,33.4,30.09,WSW,242,5.0,5.0,95,0.00,,,0.00,32767.00,ALWS 1.0-beta,2013-01-29 11:10:00,
2013-01-29 06:15:00,35.1,33.8,30.10,WSW,245,4.0,5.0,95,0.00,,,0.00,32767.00,ALWS 1.0-beta,2013-01-29 11:15:00,
2013-01-29 06:20:00,35.3,34.0,30.10,WSW,254,3.0,6.0,95,0.00,,,0.00,32767.00,ALWS 1.0-beta,2013-01-29 11:20:00,
2013-01-29 06:25:00,35.7,34.4,30.10,West,269,0.0,2.0,95,0.00,,,0.00,32767.00,ALWS 1.0-beta,2013-01-29 11:25:00,
2013-01-29 06:30:00,36.1,35.1,30.11,West,271,0.0,2.0,96,0.00,,,0.00,32767.00,ALWS 1.0-beta,2013-01-29 11:30:00,
2013-01-29 06:35:00,36.3,35.0,30.11,West,271,0.0,1.0,95,0.00,,,0.01,32767.00,ALWS 1.0-beta,2013-01-29 11:35:00,
2013-01-29 06:40:00,36.3,35.0,30.11,West,271,0.0,0.0,95,0.00,,,0.01,32767.00,ALWS 1.0-beta,2013-01-29 11:40:00,
2013-01-29 06:45:00,35.8,34.5,30.11,ENE,78,4.0,4.0,95,0.00,,,0.01,32767.00,ALWS 1.0-beta,2013-01-29 11:45:00,
2013-01-29 06:50:00,34.9,33.3,30.12,ENE,78,1.0,2.0,94,0.00,,,0.01,32767.00,ALWS 1.0-beta,2013-01-29 11:50:00,
2013-01-29 06:55:00,34.9,33.6,30.12,ENE,57,0.0,0.0,95,0.00,,,0.01,32767.00,ALWS 1.0-beta,2013-01-29 11:55:00,
2013-01-29 07:00:00,35.0,33.7,30.12,ENE,57,0.0,0.0,95,0.00,,,0.01,32767.00,ALWS 1.0-beta,2013-01-29 12:00:00,
2013-01-29 07:05:00,35.0,33.7,30.13,ENE,57,0.0,0.0,95,0.00,,,0.01,32767.00,ALWS 1.0-beta,2013-01-29 12:05:00,
2013-01-29 07:10:00,34.9,33.6,30.13,ENE,78,0.0,0.0,95,0.00,,,0.02,32767.00,ALWS 1.0-beta,2013-01-29 12:10:00,
2013-01-29 07:15:00,34.8,33.5,30.13,East,90,0.0,0.0,95,0.00,,,0.02,32767.00,ALWS 1.0-beta,2013-01-29 12:15:00,
2013-01-29 07:20:00,34.8,33.5,30.13,East,90,0.0,0.0,95,0.06,,,0.03,32767.00,ALWS 1.0-beta,2013-01-29 12:20:00,
2013-01-29 07:25:00,34.7,33.4,30.13,East,90,0.0,0.0,95,0.06,,,0.03,32767.00,ALWS 1.0-beta,2013-01-29 12:25:00,
2013-01-29 07:30:00,34.4,33.1,30.13,East,90,0.0,0.0,95,0.04,,,0.03,32767.00,ALWS 1.0-beta,2013-01-29 12:30:00,
2013-01-29 07:35:00,34.4,33.1,30.14,East,90,1.0,1.0,95,0.00,,,0.03,32767.00,ALWS 1.0-beta,2013-01-29 12:35:00,
2013-01-29 07:40:00,34.4,33.1,30.14,East,90,0.0,0.0,95,0.00,,,0.03,32767.00,ALWS 1.0-beta,2013-01-29 12:40:00,
2013-01-29 07:45:00,34.3,33.0,30.14,East,90,0.0,0.0,95,0.00,,,0.03,32767.00,ALWS 1.0-beta,2013-01-29 12:45:00,
2013-01-29 07:50:00,34.2,32.9,30.14,East,90,0.0,0.0,95,0.00,,,0.03,32767.00,ALWS 1.0-beta,2013-01-29 12:50:00,
2013-01-29 07:55:00,34.1,32.6,30.14,East,90,0.0,0.0,94,0.00,,,0.03,32767.00,ALWS 1.0-beta,2013-01-29 12:55:00,
2013-01-29 08:00:00,34.0,32.5,30.14,East,90,0.0,0.0,94,0.00,,,0.03,32767.00,ALWS 1.0-beta,2013-01-29 13:00:00,
2013-01-29 08:05:00,33.9,32.4,30.14,East,90,0.0,0.0,94,0.00,,,0.03,32767.00,ALWS 1.0-beta,2013-01-29 13:05:00,
2013-01-29 08:10:00,33.9,32.4,30.14,East,90,0.0,0.0,94,0.00,,,0.04,32767.00,ALWS 1.0-beta,2013-01-29 13:10:00,
2013-01-29 08:15:00,33.9,32.6,30.14,East,90,0.0,0.0,95,0.00,,,0.04,32767.00,ALWS 1.0-beta,2013-01-29 13:15:00,
2013-01-29 08:20:00,33.9,32.6,30.14,East,90,0.0,0.0,95,0.00,,,0.04,32767.00,ALWS 1.0-beta,2013-01-29 13:20:00,
2013-01-29 08:25:00,33.9,32.6,30.14,East,90,0.0,0.0,95,0.00,,,0.04,32767.00,ALWS 1.0-beta,2013-01-29 13:25:00,
2013-01-29 08:30:00,33.9,32.4,30.14,East,90,0.0,0.0,94,0.00,,,0.04,32767.00,ALWS 1.0-beta,2013-01-29 13:30:00,
2013-01-29 08:35:00,33.8,32.3,30.15,East,90,0.0,0.0,94,0.00,,,0.04,32767.00,ALWS 1.0-beta,2013-01-29 13:35:00,
2013-01-29 08:40:00,33.9,32.6,30.15,East,90,0.0,0.0,95,0.00,,,0.04,32767.00,ALWS 1.0-beta,2013-01-29 13:40:00,
2013-01-29 08:45:00,33.7,32.4,30.15,East,90,0.0,0.0,95,0.00,,,0.04,32767.00,ALWS 1.0-beta,2013-01-29 13:45:00,
2013-01-29 08:50:00,33.8,32.5,30.15,East,90,0.0,0.0,95,0.00,,,0.04,32767.00,ALWS 1.0-beta,2013-01-29 13:50:00,
2013-01-29 08:55:00,33.7,32.4,30.16,ENE,64,2.0,3.0,95,0.00,,,0.04,32767.00,ALWS 1.0-beta,2013-01-29 13:55:00,
2013-01-29 09:00:00,33.7,32.4,30.16,East,82,0.0,0.0,95,0.00,,,0.04,32767.00,ALWS 1.0-beta,2013-01-29 14:00:00,
2013-01-29 09:05:00,33.6,32.3,30.16,East,82,0.0,0.0,95,0.00,,,0.04,32767.00,ALWS 1.0-beta,2013-01-29 14:05:00,
2013-01-29 09:10:00,33.6,32.1,30.16,East,82,0.0,0.0,94,0.00,,,0.04,32767.00,ALWS 1.0-beta,2013-01-29 14:10:00,
2013-01-29 09:15:00,33.5,32.2,30.16,East,82,0.0,0.0,95,0.00,,,0.04,32767.00,ALWS 1.0-beta,2013-01-29 14:15:00,
2013-01-29 09:20:00,33.5,32.2,30.16,ENE,67,0.0,0.0,95,0.00,,,0.04,32767.00,ALWS 1.0-beta,2013-01-29 14:20:00,
2013-01-29 09:25:00,33.5,32.2,30.16,ENE,67,0.0,0.0,95,0.00,,,0.05,32767.00,ALWS 1.0-beta,2013-01-29 14:25:00,
2013-01-29 09:30:00,33.5,32.2,30.17,ENE,67,0.0,0.0,95,0.00,,,0.05,32767.00,ALWS 1.0-beta,2013-01-29 14:30:00,
2013-01-29 09:35:00,33.6,32.3,30.17,ENE,67,0.0,0.0,95,0.06,,,0.06,32767.00,ALWS 1.0-beta,2013-01-29 14:35:00,
2013-01-29 09:40:00,33.5,32.2,30.17,ENE,67,0.0,0.0,95,0.08,,,0.07,32767.00,ALWS 1.0-beta,2013-01-29 14:40:00,
2013-01-29 09:45:00,33.5,32.2,30.17,ENE,67,1.0,2.0,95,0.08,,,0.07,32767.00,ALWS 1.0-beta,2013-01-29 14:45:00,
2013-01-29 09:50:00,33.8,32.5,30.16,ENE,69,0.0,1.0,95,0.09,,,0.08,32767.00,ALWS 1.0-beta,2013-01-29 14:50:00,
2013-01-29 09:55:00,33.9,32.6,30.16,ENE,69,0.0,0.0,95,0.08,,,0.09,32767.00,ALWS 1.0-beta,2013-01-29 14:55:00,
2013-01-29 10:00:00,34.1,32.8,30.17,ENE,69,0.0,0.0,95,0.08,,,0.09,32767.00,ALWS 1.0-beta,2013-01-29 15:00:00,
2013-01-29 10:05:00,34.4,33.1,30.17,ENE,63,0.0,0.0,95,0.08,,,0.10,32767.00,ALWS 1.0-beta,2013-01-29 15:05:00,
2013-01-29 10:10:00,34.6,33.3,30.18,ENE,63,0.0,0.0,95,0.09,,,0.11,32767.00,ALWS 1.0-beta,2013-01-29 15:10:00,
2013-01-29 10:15:00,34.8,33.5,30.18,ENE,63,0.0,1.0,95,0.09,,,0.11,32767.00,ALWS 1.0-beta,2013-01-29 15:15:00,
2013-01-29 10:20:00,35.2,33.9,30.17,ENE,63,0.0,0.0,95,0.09,,,0.12,32767.00,ALWS 1.0-beta,2013-01-29 15:20:00,
2013-01-29 10:25:00,35.6,34.0,30.18,ENE,71,0.0,0.0,94,0.11,,,0.13,32767.00,ALWS 1.0-beta,2013-01-29 15:25:00,
2013-01-29 10:30:00,35.5,34.0,30.18,ENE,71,0.0,0.0,94,0.07,,,0.14,32767.00,ALWS 1.0-beta,2013-01-29 15:30:00,
2013-01-29 10:35:00,35.5,34.0,30.17,SSW,196,0.0,0.0,94,0.07,,,0.14,32767.00,ALWS 1.0-beta,2013-01-29 15:35:00,
2013-01-29 10:40:00,35.4,33.8,30.17,SSW,196,0.0,0.0,94,0.10,,,0.15,32767.00,ALWS 1.0-beta,2013-01-29 15:40:00,
2013-01-29 10:45:00,35.4,33.8,30.17,SSW,195,0.0,0.0,94,0.06,,,0.15,32767.00,ALWS 1.0-beta,2013-01-29 15:45:00,
2013-01-29 10:50:00,35.4,33.8,30.17,East,96,0.0,0.0,94,0.05,,,0.16,32767.00,ALWS 1.0-beta,2013-01-29 15:50:00,
2013-01-29 10:55:00,35.4,33.6,30.17,East,96,0.0,0.0,93,0.07,,,0.16,32767.00,ALWS 1.0-beta,2013-01-29 15:55:00,
2013-01-29 11:00:00,35.5,33.7,30.17,East,96,0.0,0.0,93,0.07,,,0.17,32767.00,ALWS 1.0-beta,2013-01-29 16:00:00,
2013-01-29 11:05:00,35.6,33.8,30.16,East,96,0.0,0.0,93,0.06,,,0.17,32767.00,ALWS 1.0-beta,2013-01-29 16:05:00,
2013-01-29 11:10:00,35.9,34.1,30.16,ENE,70,0.0,4.0,93,0.06,,,0.18,32767.00,ALWS 1.0-beta,2013-01-29 16:10:00,
2013-01-29 11:15:00,36.3,34.5,30.16,East,80,0.0,0.0,93,0.07,,,0.18,32767.00,ALWS 1.0-beta,2013-01-29 16:15:00,
2013-01-29 11:20:00,36.6,34.5,30.15,ESE,107,1.0,5.0,92,0.07,,,0.19,32767.00,ALWS 1.0-beta,2013-01-29 16:20:00,
2013-01-29 11:25:00,36.5,34.4,30.15,East,84,5.0,5.0,92,0.06,,,0.19,32767.00,ALWS 1.0-beta,2013-01-29 16:25:00,
2013-01-29 11:30:00,36.8,34.7,30.15,East,84,4.0,4.0,92,0.04,,,0.20,32767.00,ALWS 1.0-beta,2013-01-29 16:30:00,
2013-01-29 11:35:00,37.0,34.6,30.15,East,82,0.0,0.0,91,0.12,,,0.21,32767.00,ALWS 1.0-beta,2013-01-29 16:35:00,
2013-01-29 11:40:00,37.4,35.3,30.15,NE,53,0.0,0.0,92,0.11,,,0.21,32767.00,ALWS 1.0-beta,2013-01-29 16:40:00,
2013-01-29 11:45:00,37.4,35.0,30.14,NE,53,0.0,0.0,91,0.06,,,0.22,32767.00,ALWS 1.0-beta,2013-01-29 16:45:00,
2013-01-29 11:50:00,37.6,35.2,30.15,NE,52,0.0,0.0,91,0.06,,,0.22,32767.00,ALWS 1.0-beta,2013-01-29 16:50:00,
2013-01-29 11:55:00,37.8,35.1,30.15,NE,53,0.0,0.0,90,0.06,,,0.22,32767.00,ALWS 1.0-beta,2013-01-29 16:55:00,
2013-01-29 12:00:00,37.9,35.2,30.14,ESE,102,0.0,1.0,90,0.05,,,0.23,32767.00,ALWS 1.0-beta,2013-01-29 17:00:00,
2013-01-29 12:05:00,38.0,35.3,30.14,ESE,102,0.0,1.0,90,0.05,,,0.23,32767.00,ALWS 1.0-beta,2013-01-29 17:05:00,
2013-01-29 12:10:00,38.2,35.5,30.14,ESE,119,0.0,0.0,90,0.04,,,0.24,32767.00,ALWS 1.0-beta,2013-01-29 17:10:00,
2013-01-29 12:15:00,38.5,35.5,30.14,NE,53,2.0,4.0,89,0.04,,,0.24,32767.00,ALWS 1.0-beta,2013-01-29 17:15:00,
2013-01-29 12:20:00,38.7,35.7,30.14,ENE,57,0.0,0.0,89,0.04,,,0.24,32767.00,ALWS 1.0-beta,2013-01-29 17:20:00,
2013-01-29 12:25:00,39.2,36.0,30.13,ENE,63,0.0,1.0,88,0.06,,,0.25,32767.00,ALWS 1.0-beta,2013-01-29 17:25:00,
2013-01-29 12:30:00,39.4,36.2,30.14,ENE,67,1.0,1.0,88,0.06,,,0.25,32767.00,ALWS 1.0-beta,2013-01-29 17:30:00,
2013-01-29 12:35:00,40.0,36.7,30.13,ENE,69,0.0,0.0,88,0.04,,,0.25,32767.00,ALWS 1.0-beta,2013-01-29 17:35:00,
2013-01-29 12:40:00,40.2,36.7,30.13,ENE,69,1.0,2.0,87,0.00,,,0.25,32767.00,ALWS 1.0-beta,2013-01-29 17:40:00,
2013-01-29 12:45:00,40.5,36.9,30.13,ENE,69,0.0,0.0,87,0.00,,,0.26,32767.00,ALWS 1.0-beta,2013-01-29 17:45:00,
2013-01-29 12:50:00,40.7,37.1,30.12,ESE,117,0.0,0.0,87,0.00,,,0.26,32767.00,ALWS 1.0-beta,2013-01-29 17:50:00,
2013-01-29 12:55:00,40.9,37.3,30.12,East,98,0.0,0.0,87,0.00,,,0.26,32767.00,ALWS 1.0-beta,2013-01-29 17:55:00,
2013-01-29 13:00:00,40.9,37.0,30.12,ESE,115,0.0,0.0,86,0.00,,,0.26,32767.00,ALWS 1.0-beta,2013-01-29 18:00:00,
2013-01-29 13:05:00,41.1,37.2,30.12,ENE,70,0.0,0.0,86,0.00,,,0.26,32767.00,ALWS 1.0-beta,2013-01-29 18:05:00,
2013-01-29 13:10:00,41.5,37.9,30.12,ENE,70,0.0,0.0,87,0.00,,,0.26,32767.00,ALWS 1.0-beta,2013-01-29 18:10:00,
2013-01-29 13:15:00,41.5,37.6,30.11,ENE,69,0.0,0.0,86,0.00,,,0.26,32767.00,ALWS 1.0-beta,2013-01-29 18:15:00,
2013-01-29 13:20:00,41.6,37.7,30.11,ENE,70,0.0,0.0,86,0.00,,,0.26,32767.00,ALWS 1.0-beta,2013-01-29 18:20:00,
2013-01-29 13:25:00,41.7,37.8,30.11,ENE,70,0.0,0.0,86,0.00,,,0.26,32767.00,ALWS 1.0-beta,2013-01-29 18:25:00,
2013-01-29 13:30:00,42.0,38.1,30.11,ENE,70,0.0,0.0,86,0.00,,,0.26,32767.00,ALWS 1.0-beta,2013-01-29 18:30:00,
2013-01-29 13:35:00,42.1,37.9,30.11,ENE,69,0.0,0.0,85,0.00,,,0.26,32767.00,ALWS 1.0-beta,2013-01-29 18:35:00,
2013-01-29 13:40:00,42.2,38.0,30.11,ENE,70,0.0,0.0,85,0.00,,,0.26,32767.00,ALWS 1.0-beta,2013-01-29 18:40:00,
2013-01-29 13:45:00,42.3,38.1,30.10,ENE,70,0.0,0.0,85,0.00,,,0.26,32767.00,ALWS 1.0-beta,2013-01-29 18:45:00,
2013-01-29 13:50:00,42.3,37.8,30.10,ENE,70,0.0,0.0,84,0.00,,,0.26,32767.00,ALWS 1.0-beta,2013-01-29 18:50:00,
2013-01-29 13:55:00,42.2,37.7,30.10,ENE,69,0.0,0.0,84,0.00,,,0.26,32767.00,ALWS 1.0-beta,2013-01-29 18:55:00,
2013-01-29 14:00:00,42.1,37.6,30.11,ENE,70,0.0,0.0,84,0.00,,,0.26,32767.00,ALWS 1.0-beta,2013-01-29 19:00:00,
2013-01-29 14:02:00,43.7,39.2,30.10,ENE,69,0.0,0.0,84,0.00,,,0.26,32767.00,ALWS 1.0-beta,2013-01-29 19:02:00,
2013-01-29 14:03:00,43.7,38.9,30.10,ENE,70,0.0,0.0,83,0.00,,,0.26,32767.00,ALWS 1.0-beta,2013-01-29 19:03:00,
2013-01-29 14:05:00,41.9,37.4,30.11,ENE,69,0.0,0.0,84,0.00,,,0.26,32767.00,ALWS 1.0-beta,2013-01-29 19:05:00,
2013-01-29 14:10:00,41.8,37.6,30.11,ENE,69,0.0,0.0,85,0.00,,,0.26,32767.00,ALWS 1.0-beta,2013-01-29 19:10:00,
2013-01-29 14:15:00,41.9,37.7,30.10,ENE,70,0.0,0.0,85,0.00,,,0.26,32767.00,ALWS 1.0-beta,2013-01-29 19:15:00,
2013-01-29 14:20:00,42.1,37.9,30.10,ENE,70,0.0,0.0,85,0.00,,,0.26,32767.00,ALWS 1.0-beta,2013-01-29 19:20:00,
2013-01-29 14:25:00,42.2,38.3,30.10,ENE,70,0.0,0.0,86,0.00,,,0.26,32767.00,ALWS 1.0-beta,2013-01-29 19:25:00,
2013-01-29 14:28:00,43.7,39.2,30.10,ENE,70,0.0,0.0,84,0.00,,,0.26,32767.00,ALWS 1.0-beta,2013-01-29 19:28:00,
2013-01-29 14:29:00,43.7,39.2,30.10,ENE,70,0.0,0.0,84,0.00,,,0.26,32767.00,ALWS 1.0-beta,2013-01-29 19:29:00,
2013-01-29 14:30:00,42.4,38.2,30.10,ENE,69,0.0,0.0,85,0.00,,,0.26,32767.00,ALWS 1.0-beta,2013-01-29 19:30:00,
2013-01-29 14:31:00,43.8,39.0,30.10,ENE,69,0.0,0.0,83,0.00,,,0.26,32767.00,ALWS 1.0-beta,2013-01-29 19:31:00,
2013-01-29 14:35:00,42.5,38.3,30.10,ENE,69,0.0,0.0,85,0.00,,,0.26,32767.00,ALWS 1.0-beta,2013-01-29 19:35:00,
2013-01-29 14:40:00,42.4,37.9,30.10,ENE,70,0.0,0.0,84,0.00,,,0.26,32767.00,ALWS 1.0-beta,2013-01-29 19:40:00,
2013-01-29 14:45:00,42.2,38.0,30.11,ENE,69,0.0,0.0,85,0.00,,,0.26,32767.00,ALWS 1.0-beta,2013-01-29 19:45:00,
2013-01-29 14:50:00,42.3,38.4,30.10,ENE,70,0.0,0.0,86,0.00,,,0.26,32767.00,ALWS 1.0-beta,2013-01-29 19:50:00,
2013-01-29 14:55:00,43.1,38.9,30.10,ENE,70,0.0,0.0,85,0.00,,,0.26,32767.00,ALWS 1.0-beta,2013-01-29 19:55:00,
2013-01-29 15:00:00,43.6,39.1,30.10,ENE,70,0.0,0.0,84,0.00,,,0.26,32767.00,ALWS 1.0-beta,2013-01-29 20:00:00,
2013-01-29 15:05:00,43.8,39.0,30.10,ENE,70,0.0,0.0,83,0.00,,,0.26,32767.00,ALWS 1.0-beta,2013-01-29 20:05:00,
2013-01-29 15:10:00,43.8,39.0,30.10,ENE,70,0.0,0.0,83,0.00,,,0.26,32767.00,ALWS 1.0-beta,2013-01-29 20:10:00,
2013-01-29 15:15:00,43.9,39.1,30.10,ENE,69,0.0,0.0,83,0.00,,,0.26,32767.00,ALWS 1.0-beta,2013-01-29 20:15:00,
2013-01-29 15:20:00,43.9,39.1,30.10,ENE,69,0.0,0.0,83,0.00,,,0.26,32767.00,ALWS 1.0-beta,2013-01-29 20:20:00,
2013-01-29 15:25:00,43.8,39.0,30.10,ENE,69,0.0,0.0,83,0.00,,,0.26,32767.00,ALWS 1.0-beta,2013-01-29 20:25:00,
2013-01-29 15:30:00,43.6,38.8,30.11,ENE,70,0.0,0.0,83,0.00,,,0.26,32767.00,ALWS 1.0-beta,2013-01-29 20:30:00,
2013-01-29 15:35:00,43.3,38.5,30.11,ENE,70,0.0,0.0,83,0.00,,,0.26,32767.00,ALWS 1.0-beta,2013-01-29 20:35:00,
2013-01-29 15:40:00,43.0,38.5,30.11,ENE,70,0.0,0.0,84,0.00,,,0.26,32767.00,ALWS 1.0-beta,2013-01-29 20:40:00,
2013-01-29 15:45:00,42.8,38.3,30.10,ENE,70,0.0,0.0,84,0.00,,,0.26,32767.00,ALWS 1.0-beta,2013-01-29 20:45:00,
2013-01-29 15:50:00,42.7,38.2,30.10,East,90,0.0,0.0,84,0.00,,,0.26,32767.00,ALWS 1.0-beta,2013-01-29 20:50:00,
2013-01-29 15:55:00,42.3,38.1,30.11,East,90,0.0,0.0,85,0.00,,,0.26,32767.00,ALWS 1.0-beta,2013-01-29 20:55:00,
2013-01-29 16:00:00,42.2,38.3,30.10,East,90,0.0,0.0,86,0.00,,,0.26,32767.00,ALWS 1.0-beta,2013-01-29 21:00:00,
2013-01-29 16:05:00,42.3,38.4,30.10,East,94,0.0,0.0,86,0.00,,,0.26,32767.00,ALWS 1.0-beta,2013-01-29 21:05:00,
2013-01-29 16:10:00,42.2,38.0,30.11,East,94,0.0,0.0,85,0.00,,,0.26,32767.00,ALWS 1.0-beta,2013-01-29 21:10:00,
2013-01-29 16:15:00,42.1,37.9,30.11,East,94,0.0,0.0,85,0.00,,,0.26,32767.00,ALWS 1.0-beta,2013-01-29 21:15:00,
2013-01-29 16:20:00,41.9,37.7,30.11,East,101,0.0,0.0,85,0.00,,,0.26,32767.00,ALWS 1.0-beta,2013-01-29 21:20:00,
2013-01-29 16:25:00,41.8,37.9,30.12,ESE,103,0.0,0.0,86,0.00,,,0.26,32767.00,ALWS 1.0-beta,2013-01-29 21:25:00,
2013-01-29 16:30:00,41.7,37.8,30.14,ESE,103,0.0,0.0,86,0.00,,,0.27,32767.00,ALWS 1.0-beta,2013-01-29 21:30:00,
2013-01-29 16:35:00,41.5,37.6,30.15,ESE,103,0.0,0.0,86,0.00,,,0.27,32767.00,ALWS 1.0-beta,2013-01-29 21:35:00,
2013-01-29 16:40:00,41.2,37.6,30.14,ESE,103,0.0,0.0,87,0.28,,,0.29,32767.00,ALWS 1.0-beta,2013-01-29 21:40:00,
2013-01-29 16:45:00,40.9,37.6,30.14,East,80,0.0,0.0,88,0.17,,,0.30,32767.00,ALWS 1.0-beta,2013-01-29 21:45:00,
2013-01-29 16:50:00,40.7,37.7,30.14,East,80,0.0,0.0,89,0.14,,,0.31,32767.00,ALWS 1.0-beta,2013-01-29 21:50:00,
2013-01-29 16:55:00,40.6,37.9,30.15,East,80,0.0,0.0,90,0.12,,,0.32,32767.00,ALWS 1.0-beta,2013-01-29 21:55:00,
2013-01-29 17:00:00,40.6,37.9,30.14,East,80,0.0,0.0,90,0.08,,,0.33,32767.00,ALWS 1.0-beta,2013-01-29 22:00:00,
2013-01-29 17:05:00,40.5,37.8,30.13,East,80,0.0,0.0,90,0.08,,,0.33,32767.00,ALWS 1.0-beta,2013-01-29 22:05:00,
2013-01-29 17:10:00,40.3,37.6,30.13,East,80,0.0,0.0,90,0.06,,,0.34,32767.00,ALWS 1.0-beta,2013-01-29 22:10:00,
2013-01-29 17:15:00,40.1,37.4,30.13,East,80,0.0,0.0,90,0.06,,,0.34,32767.00,ALWS 1.0-beta,2013-01-29 22:15:00,
2013-01-29 17:20:00,40.0,37.3,30.13,East,80,0.0,0.0,90,0.08,,,0.35,32767.00,ALWS 1.0-beta,2013-01-29 22:20:00,
2013-01-29 17:25:00,39.8,37.1,30.13,East,80,0.0,0.0,90,0.07,,,0.35,32767.00,ALWS 1.0-beta,2013-01-29 22:25:00,
2013-01-29 17:30:00,39.5,36.8,30.13,East,80,0.0,0.0,90,0.04,,,0.35,32767.00,ALWS 1.0-beta,2013-01-29 22:30:00,
2013-01-29 17:35:00,39.1,36.4,30.13,East,80,0.0,0.0,90,0.00,,,0.35,32767.00,ALWS 1.0-beta,2013-01-29 22:35:00,
2013-01-29 17:40:00,38.9,36.5,30.13,East,80,0.0,0.0,91,0.00,,,0.35,32767.00,ALWS 1.0-beta,2013-01-29 22:40:00,
2013-01-29 17:45:00,38.8,36.4,30.13,East,80,0.0,0.0,91,0.00,,,0.35,32767.00,ALWS 1.0-beta,2013-01-29 22:45:00,
2013-01-29 17:50:00,38.7,36.3,30.13,East,80,0.0,0.0,91,0.00,,,0.35,32767.00,ALWS 1.0-beta,2013-01-29 22:50:00,
2013-01-29 17:55:00,38.7,36.6,30.13,East,80,0.0,0.0,92,0.00,,,0.35,32767.00,ALWS 1.0-beta,2013-01-29 22:55:00,
2013-01-29 18:00:00,38.7,36.6,30.13,East,80,0.0,0.0,92,0.00,,,0.35,32767.00,ALWS 1.0-beta,2013-01-29 23:00:00,
2013-01-29 18:05:00,38.5,36.4,30.12,East,80,0.0,0.0,92,0.00,,,0.35,32767.00,ALWS 1.0-beta,2013-01-29 23:05:00,
2013-01-29 18:10:00,38.5,36.7,30.12,West,268,0.0,0.0,93,0.00,,,0.35,32767.00,ALWS 1.0-beta,2013-01-29 23:10:00,
2013-01-29 18:15:00,38.4,36.3,30.13,West,268,0.0,0.0,92,0.00,,,0.35,32767.00,ALWS 1.0-beta,2013-01-29 23:15:00,
2013-01-29 18:20:00,38.5,36.7,30.13,West,268,0.0,0.0,93,0.00,,,0.35,32767.00,ALWS 1.0-beta,2013-01-29 23:20:00,
2013-01-29 18:25:00,38.5,36.7,30.14,West,268,0.0,0.0,93,0.00,,,0.35,32767.00,ALWS 1.0-beta,2013-01-29 23:25:00,
2013-01-29 18:30:00,38.4,36.6,30.14,West,268,0.0,0.0,93,0.00,,,0.35,32767.00,ALWS 1.0-beta,2013-01-29 23:30:00,
2013-01-29 18:35:00,38.4,36.6,30.14,West,268,0.0,0.0,93,0.00,,,0.35,32767.00,ALWS 1.0-beta,2013-01-29 23:35:00,
2013-01-29 18:40:00,38.3,36.5,30.14,West,268,0.0,0.0,93,0.00,,,0.35,32767.00,ALWS 1.0-beta,2013-01-29 23:40:00,
2013-01-29 18:45:00,38.2,36.4,30.14,West,268,0.0,0.0,93,0.00,,,0.35,32767.00,ALWS 1.0-beta,2013-01-29 23:45:00,
2013-01-29 18:50:00,38.0,36.2,30.13,West,268,0.0,0.0,93,0.00,,,0.35,32767.00,ALWS 1.0-beta,2013-01-29 23:50:00,
2013-01-29 18:55:00,37.9,36.1,30.13,West,268,0.0,0.0,93,0.00,,,0.35,32767.00,ALWS 1.0-beta,2013-01-29 23:55:00,
2013-01-29 19:00:00,37.8,36.0,30.13,West,268,0.0,0.0,93,0.00,,,0.35,32767.00,ALWS 1.0-beta,2013-01-30 00:00:00,
2013-01-29 19:05:00,37.6,35.8,30.14,West,268,0.0,0.0,93,0.00,,,0.35,32767.00,ALWS 1.0-beta,2013-01-30 00:05:00,
2013-01-29 19:10:00,37.4,35.6,30.14,West,268,0.0,0.0,93,0.00,,,0.35,32767.00,ALWS 1.0-beta,2013-01-30 00:10:00,
2013-01-29 19:15:00,37.3,35.5,30.14,West,268,0.0,0.0,93,0.00,,,0.35,32767.00,ALWS 1.0-beta,2013-01-30 00:15:00,
2013-01-29 19:20:00,37.1,35.3,30.14,West,268,0.0,0.0,93,0.00,,,0.35,32767.00,ALWS 1.0-beta,2013-01-30 00:20:00,
2013-01-29 19:25:00,37.0,35.2,30.14,West,272,0.0,0.0,93,0.00,,,0.35,32767.00,ALWS 1.0-beta,2013-01-30 00:25:00,
2013-01-29 19:30:00,36.8,35.0,30.14,West,273,0.0,0.0,93,0.00,,,0.35,32767.00,ALWS 1.0-beta,2013-01-30 00:30:00,
2013-01-29 19:35:00,36.7,34.9,30.14,West,272,0.0,0.0,93,0.00,,,0.35,32767.00,ALWS 1.0-beta,2013-01-30 00:35:00,
2013-01-29 19:40:00,36.8,35.2,30.14,West,273,0.0,0.0,94,0.00,,,0.35,32767.00,ALWS 1.0-beta,2013-01-30 00:40:00,
2013-01-29 19:45:00,36.9,35.3,30.14,WNW,282,0.0,0.0,94,0.00,,,0.35,32767.00,ALWS 1.0-beta,2013-01-30 00:45:00,
2013-01-29 19:50:00,37.0,35.4,30.15,West,281,0.0,0.0,94,0.00,,,0.35,32767.00,ALWS 1.0-beta,2013-01-30 00:50:00,
2013-01-29 19:55:00,37.0,35.4,30.14,West,281,0.0,0.0,94,0.00,,,0.35,32767.00,ALWS 1.0-beta,2013-01-30 00:55:00,
2013-01-29 20:00:00,36.9,35.3,30.14,WNW,282,0.0,0.0,94,0.00,,,0.35,32767.00,ALWS 1.0-beta,2013-01-30 01:00:00,
2013-01-29 20:05:00,36.9,35.3,30.14,WNW,282,0.0,0.0,94,0.00,,,0.35,32767.00,ALWS 1.0-beta,2013-01-30 01:05:00,
2013-01-29 20:10:00,36.8,35.2,30.14,WNW,282,0.0,0.0,94,0.00,,,0.35,32767.00,ALWS 1.0-beta,2013-01-30 01:10:00,
2013-01-29 20:15:00,36.7,35.1,30.14,West,281,0.0,0.0,94,0.00,,,0.35,32767.00,ALWS 1.0-beta,2013-01-30 01:15:00,
2013-01-29 20:20:00,36.6,35.0,30.14,West,281,0.0,0.0,94,0.17,,,0.37,32767.00,ALWS 1.0-beta,2013-01-30 01:20:00,
2013-01-29 20:25:00,36.5,34.9,30.14,West,281,0.0,0.0,94,0.09,,,0.37,32767.00,ALWS 1.0-beta,2013-01-30 01:25:00,
2013-01-29 20:30:00,36.4,34.8,30.14,West,281,0.0,0.0,94,0.05,,,0.37,32767.00,ALWS 1.0-beta,2013-01-30 01:30:00,
2013-01-29 20:35:00,36.4,34.8,30.14,WNW,282,0.0,0.0,94,0.04,,,0.37,32767.00,ALWS 1.0-beta,2013-01-30 01:35:00,
2013-01-29 20:40:00,36.2,34.6,30.14,WNW,282,0.0,0.0,94,0.00,,,0.37,32767.00,ALWS 1.0-beta,2013-01-30 01:40:00,
2013-01-29 20:45:00,36.1,34.5,30.14,WNW,282,0.0,0.0,94,0.00,,,0.37,32767.00,ALWS 1.0-beta,2013-01-30 01:45:00,
2013-01-29 20:50:00,36.0,34.4,30.14,West,281,0.0,0.0,94,0.00,,,0.37,32767.00,ALWS 1.0-beta,2013-01-30 01:50:00,
2013-01-29 20:55:00,35.8,34.2,30.14,West,281,0.0,0.0,94,0.00,,,0.37,32767.00,ALWS 1.0-beta,2013-01-30 01:55:00,
2013-01-29 21:00:00,35.7,34.2,30.14,West,281,0.0,0.0,94,0.00,,,0.37,32767.00,ALWS 1.0-beta,2013-01-30 02:00:00,
2013-01-29 21:05:00,35.7,34.2,30.14,WNW,282,0.0,0.0,94,0.00,,,0.37,32767.00,ALWS 1.0-beta,2013-01-30 02:05:00,
2013-01-29 21:10:00,35.7,34.2,30.14,WNW,282,0.0,0.0,94,0.00,,,0.37,32767.00,ALWS 1.0-beta,2013-01-30 02:10:00,
2013-01-29 21:15:00,35.7,34.2,30.13,WNW,282,0.0,0.0,94,0.00,,,0.37,32767.00,ALWS 1.0-beta,2013-01-30 02:15:00,
2013-01-29 21:20:00,35.7,34.2,30.13,West,281,0.0,0.0,94,0.00,,,0.37,32767.00,ALWS 1.0-beta,2013-01-30 02:20:00,
2013-01-29 21:25:00,35.6,34.0,30.13,WNW,282,0.0,1.0,94,0.00,,,0.37,32767.00,ALWS 1.0-beta,2013-01-30 02:25:00,
2013-01-29 21:30:00,35.6,34.0,30.13,West,281,0.0,0.0,94,0.00,,,0.37,32767.00,ALWS 1.0-beta,2013-01-30 02:30:00,
2013-01-29 21:35:00,35.5,34.0,30.13,West,281,0.0,0.0,94,0.00,,,0.37,32767.00,ALWS 1.0-beta,2013-01-30 02:35:00,
2013-01-29 21:40:00,35.4,33.8,30.13,West,281,0.0,0.0,94,0.00,,,0.37,32767.00,ALWS 1.0-beta,2013-01-30 02:40:00,
2013-01-29 21:45:00,35.3,33.8,30.13,WNW,282,0.0,0.0,94,0.00,,,0.37,32767.00,ALWS 1.0-beta,2013-01-30 02:45:00,
2013-01-29 21:50:00,35.4,33.8,30.13,WNW,282,0.0,0.0,94,0.00,,,0.37,32767.00,ALWS 1.0-beta,2013-01-30 02:50:00,
2013-01-29 21:55:00,35.6,34.3,30.13,WNW,282,0.0,0.0,95,0.00,,,0.37,32767.00,ALWS 1.0-beta,2013-01-30 02:55:00,
2013-01-29 22:00:00,35.6,34.0,30.13,WNW,282,0.0,0.0,94,0.00,,,0.37,32767.00,ALWS 1.0-beta,2013-01-30 03:00:00,
2013-01-29 22:05:00,35.6,34.0,30.13,WNW,282,0.0,0.0,94,0.00,,,0.37,32767.00,ALWS 1.0-beta,2013-01-30 03:05:00,
2013-01-29 22:10:00,35.5,34.0,30.13,West,281,0.0,0.0,94,0.00,,,0.37,32767.00,ALWS 1.0-beta,2013-01-30 03:10:00,
2013-01-29 22:15:00,35.4,33.8,30.12,WNW,282,0.0,0.0,94,0.00,,,0.37,32767.00,ALWS 1.0-beta,2013-01-30 03:15:00,
2013-01-29 22:20:00,35.3,34.0,30.13,WNW,282,0.0,0.0,95,0.00,,,0.37,32767.00,ALWS 1.0-beta,2013-01-30 03:20:00,
2013-01-29 22:25:00,35.3,34.0,30.13,West,281,0.0,0.0,95,0.00,,,0.37,32767.00,ALWS 1.0-beta,2013-01-30 03:25:00,
2013-01-29 22:30:00,35.3,34.0,30.13,WNW,282,0.0,0.0,95,0.00,,,0.37,32767.00,ALWS 1.0-beta,2013-01-30 03:30:00,
2013-01-29 22:35:00,35.2,33.9,30.13,WNW,282,0.0,0.0,95,0.00,,,0.37,32767.00,ALWS 1.0-beta,2013-01-30 03:35:00,
2013-01-29 22:40:00,35.2,33.7,30.12,West,281,0.0,0.0,94,0.00,,,0.37,32767.00,ALWS 1.0-beta,2013-01-30 03:40:00,
2013-01-29 22:45:00,35.1,33.5,30.12,West,281,0.0,0.0,94,0.00,,,0.37,32767.00,ALWS 1.0-beta,2013-01-30 03:45:00,
2013-01-29 22:50:00,35.1,33.8,30.13,WNW,282,0.0,0.0,95,0.00,,,0.37,32767.00,ALWS 1.0-beta,2013-01-30 03:50:00,
2013-01-29 22:55:00,35.1,33.8,30.12,WNW,282,0.0,0.0,95,0.00,,,0.37,32767.00,ALWS 1.0-beta,2013-01-30 03:55:00,
2013-01-29 23:00:00,35.1,33.8,30.12,WNW,282,0.0,0.0,95,0.00,,,0.37,32767.00,ALWS 1.0-beta,2013-01-30 04:00:00,
2013-01-29 23:03:00,35.7,34.4,30.11,ENE,75,0.0,0.0,95,0.00,,,0.00,32767.00,ALWS 1.0-beta,2013-01-30 04:03:00,
2013-01-29 23:05:00,35.1,33.8,30.12,WNW,282,0.0,0.0,95,0.00,,,0.37,32767.00,ALWS 1.0-beta,2013-01-30 04:05:00,
2013-01-29 23:10:00,35.1,33.8,30.12,West,281,0.0,0.0,95,0.00,,,0.37,32767.00,ALWS 1.0-beta,2013-01-30 04:10:00,
2013-01-29 23:15:00,35.1,33.8,30.13,West,281,0.0,0.0,95,0.00,,,0.37,32767.00,ALWS 1.0-beta,2013-01-30 04:15:00,
2013-01-29 23:20:00,35.1,33.8,30.12,WNW,283,0.0,0.0,95,0.00,,,0.37,32767.00,ALWS 1.0-beta,2013-01-30 04:20:00,
2013-01-29 23:25:00,35.3,34.0,30.13,WNW,283,0.0,0.0,95,0.00,,,0.37,32767.00,ALWS 1.0-beta,2013-01-30 04:25:00,
2013-01-29 23:29:00,35.3,34.0,30.12,WNW,283,0.0,0.0,95,0.00,,,0.37,32767.00,ALWS 1.0-beta,2013-01-30 04:29:00,
2013-01-29 23:30:00,35.7,34.4,30.11,ENE,75,0.0,0.0,95,0.00,,,0.37,32767.00,ALWS 1.0-beta,2013-01-30 04:30:00,
2013-01-29 23:31:00,35.7,34.4,30.11,ENE,75,0.0,0.0,95,0.00,,,0.00,32767.00,ALWS 1.0-beta,2013-01-30 04:31:00,
2013-01-29 23:32:00,35.7,34.4,30.11,ENE,75,0.0,0.0,95,0.00,,,0.00,32767.00,ALWS 1.0-beta,2013-01-30 04:32:00,
2013-01-29 23:33:00,35.8,34.5,30.11,ENE,75,0.0,0.0,95,0.00,,,0.00,32767.00,ALWS 1.0-beta,2013-01-30 04:33:00,
2013-01-29 23:34:00,35.3,34.0,30.12,WNW,283,0.0,0.0,95,0.00,,,0.37,32767.00,ALWS 1.0-beta,2013-01-30 04:34:00,
2013-01-29 23:35:00,35.8,34.5,30.11,ENE,75,0.0,0.0,95,0.00,,,0.00,32767.00,ALWS 1.0-beta,2013-01-30 04:35:00,
2013-01-29 23:36:00,35.8,34.5,30.11,ENE,75,0.0,0.0,95,0.00,,,0.00,32767.00,ALWS 1.0-beta,2013-01-30 04:36:00,
2013-01-29 23:37:00,35.8,34.5,30.11,ENE,75,0.0,0.0,95,0.00,,,0.00,32767.00,ALWS 1.0-beta,2013-01-30 04:37:00,
2013-01-29 23:39:00,35.5,34.2,30.12,WNW,286,0.0,0.0,95,0.00,,,0.37,32767.00,ALWS 1.0-beta,2013-01-30 04:39:00,
2013-01-29 23:44:00,35.6,34.3,30.12,WNW,286,0.0,0.0,95,0.00,,,0.37,32767.00,ALWS 1.0-beta,2013-01-30 04:44:00,
2013-01-29 23:49:00,35.7,34.4,30.11,WNW,286,0.0,0.0,95,0.00,,,0.37,32767.00,ALWS 1.0-beta,2013-01-30 04:49:00,
2013-01-29 23:54:00,35.7,34.4,30.11,WNW,286,0.0,0.0,95,0.00,,,0.37,32767.00,ALWS 1.0-beta,2013-01-30 04:54:00,
2013-01-29 23:59:00,35.8,34.5,30.11,NE,37,0.0,0.0,95,0.00,,,0.37,32767.00,ALWS 1.0-beta,2013-01-30 04:59:00,